Tracking 33404 objects as of 6-Mar-2026
HD Live streaming from Space Station
objects crossing your sky now

COSMOS 1809

Track COSMOS 1809 now!
10-day predictions
COSMOS 1809 is classified as:


NORAD ID: 17241
Int'l Code: 1986-101A
Perigee: 942.9 km
Apogee: 967.5 km
Inclination: 82.5 °
Period: 104.0 minutes
Semi major axis: 7326 km
RCS: 8.1003 m2 (large)
Launch date: December 18, 1986
Source: Commonwealth of Independent States (former USSR) (CIS)
Launch site: PLESETSK MISSILE AND SPACE COMPLEX (PKMTR)
Your satellite tracking list
Your tracking list is empty




NASA's NSSDC Master Catalog

Two Line Element Set (TLE):
1 17241U 86101A   26065.24916893  .00000100  00000-0  75992-4 0  9999
2 17241  82.5345   2.6435 0016759  89.4491  64.4990 13.84481139980581
Source of the keplerian elements: AFSPC